Location: Unspecified
(43.4354°N, 0.0000°E)
Time: 22:57:00
(UTC+00:00)

Courier 1B - Pass Details

Date: 24 June 2019
Orbit: 962 x 1209 km, 28.3° (Epoch: 12 October)

Event Time Altitude Azimuth Distance (km) Brightness Sun altitude
Rises 22:20:09 0° 253° (WSW) 3,981 10.8 -19.1°
Reaches altitude 10° 22:24:41 10° 229° (SW) 3,067 9.9 -19.5°
Enters shadow 22:27:27 13° 207° (SSW) 2,844 9.6 -19.7°
Maximum altitude 22:28:02 13° 202° (SSW) 2,840 - -19.7°
Drops below altitude 10° 22:31:27 10° 176° (S) 3,115 - -20.0°
Sets 22:36:09 0° 152° (SSE) 4,096 - -20.3°
